When you browse on this site, cookies collect data to enhance your experience and personalize the content and advertising you see.
Visit our Privacy Policy to learn more. By continuing to use the site, you agree to this use of cookies and data.
  • In Hungary
  • List of Countries
  • For 7 days
  • Water Temperature
  • Satellite Maps
  • Weather Map
  • News
  • Weather Widgets
  • user-avatar
    Login

    Hourly Weather Brecht

    Today, 22 November, Thursday

    Time Temperature Precipitation Wind Pressure Humidity
    00:00 +2°C° 0 mm 2 mps 762 mmHg 88%
    01:00 +2°C° 0 mm 2 mps 762 mmHg 89%
    02:00 +1°C° 0 mm 2 mps 762 mmHg 90%
    03:00 +1°C° 0 mm 2 mps 762 mmHg 91%
    04:00 +1°C° 0 mm 2 mps 762 mmHg 92%
    05:00 +1°C° 0 mm 2 mps 762 mmHg 92%
    06:00 -1°C° 0 mm 2 mps 762 mmHg 93%
    07:00 +1°C° 0 mm 2 mps 762 mmHg 90%
    08:00 +2°C° 0 mm 2 mps 762 mmHg 87%
    09:00 +2°C° 0 mm 2 mps 762 mmHg 84%
    10:00 +3°C° 0 mm 2 mps 762 mmHg 79%
    11:00 +4°C° 0 mm 2 mps 762 mmHg 74%
    12:00 +6°C° 0 mm 2 mps 762 mmHg 69%
    13:00 +5°C° 0 mm 2 mps 762 mmHg 71%
    14:00 +5°C° 0 mm 2 mps 761 mmHg 73%
    15:00 +5°C° 0 mm 2 mps 761 mmHg 74%
    16:00 +4°C° 0 mm 2 mps 761 mmHg 77%
    17:00 +4°C° 0 mm 2 mps 761 mmHg 81%
    18:00 +3°C° 0 mm 2 mps 761 mmHg 84%
    19:00 +3°C° 0 mm 2 mps 762 mmHg 85%
    20:00 +3°C° 0 mm 2 mps 762 mmHg 86%
    21:00 +2°C° 0 mm 2 mps 762 mmHg 87%
    22:00 +2°C° 0 mm 2 mps 762 mmHg 88%
    23:00 +2°C° 0 mm 2 mps 762 mmHg 88%

    Tomorrow, 23 November, Friday

    Time Temperature Precipitation Wind Pressure Humidity
    00:00 +2°C° 0 mm 2 mps 762 mmHg 89%
    01:00 +2°C° 0 mm 2 mps 762 mmHg 89%
    02:00 +2°C° 0 mm 2 mps 762 mmHg 89%
    03:00 +2°C° 0 mm 2 mps 761 mmHg 89%
    04:00 +2°C° 0 mm 2 mps 761 mmHg 90%
    05:00 +2°C° 0 mm 2 mps 761 mmHg 90%
    06:00 +2°C° 0 mm 2 mps 761 mmHg 90%
    07:00 +3°C° 0 mm 2 mps 761 mmHg 87%
    08:00 +3°C° 0 mm 2 mps 761 mmHg 85%
    09:00 +4°C° 0 mm 2 mps 761 mmHg 82%
    10:00 +5°C° 0 mm 2 mps 761 mmHg 78%
    11:00 +7°C° 0 mm 2 mps 760 mmHg 73%
    12:00 +8°C° 0 mm 2 mps 760 mmHg 69%
    13:00 +8°C° 0 mm 2 mps 760 mmHg 72%
    14:00 +8°C° 0 mm 2 mps 759 mmHg 75%
    15:00 +7°C° 0 mm 2 mps 759 mmHg 78%
    16:00 +6°C° 0 mm 2 mps 759 mmHg 80%
    17:00 +6°C° 0 mm 2 mps 759 mmHg 83%
    18:00 +5°C° 0 mm 2 mps 758 mmHg 86%
    19:00 +5°C° 0 mm 2 mps 758 mmHg 86%
    20:00 +5°C° 0 mm 2 mps 758 mmHg 86%
    21:00 +5°C° 0 mm 2 mps 758 mmHg 85%
    22:00 +5°C° 0 mm 2 mps 757 mmHg 85%
    23:00 +3°C° 0 mm 3 mps 757 mmHg 84%

    Day after tomorrow, 24 November, Saturday

    Time Temperature Precipitation Wind Pressure Humidity
    00:00 +3°C° 0 mm 3 mps 757 mmHg 84%
    01:00 +3°C° 0 mm 3 mps 756 mmHg 82%
    02:00 +3°C° 0 mm 3 mps 756 mmHg 81%
    03:00 +3°C° 0 mm 3 mps 756 mmHg 79%
    04:00 +3°C° 0.3 mm 3 mps 756 mmHg 81%
    05:00 +3°C° 0.3 mm 3 mps 755 mmHg 83%
    06:00 +3°C° 0.3 mm 3 mps 755 mmHg 85%
    07:00 +3°C° 0.7 mm 3 mps 755 mmHg 86%
    08:00 +3°C° 0.7 mm 3 mps 755 mmHg 88%
    09:00 +3°C° 0.7 mm 3 mps 755 mmHg 89%
    10:00 +3°C° 0.6 mm 3 mps 755 mmHg 89%
    11:00 +5°C° 0.6 mm 2 mps 755 mmHg 89%
    12:00 +5°C° 0.6 mm 2 mps 755 mmHg 89%
    13:00 +5°C° 0.4 mm 2 mps 755 mmHg 90%
    14:00 +5°C° 0.4 mm 2 mps 755 mmHg 91%
    15:00 +5°C° 0.4 mm 2 mps 755 mmHg 92%
    16:00 +5°C° 0.3 mm 2 mps 755 mmHg 92%
    17:00 +5°C° 0.3 mm 2 mps 755 mmHg 93%
    18:00 +5°C° 0.3 mm 2 mps 755 mmHg 93%
    19:00 +5°C° 0.2 mm 2 mps 755 mmHg 93%
    20:00 +6°C° 0.2 mm 2 mps 755 mmHg 93%
    21:00 +6°C° 0.2 mm 2 mps 755 mmHg 92%
    22:00 +6°C° 0.2 mm 2 mps 755 mmHg 92%
    23:00 +6°C° 0.2 mm 2 mps 755 mmHg 93%

    25 November, Sunday

    Time Temperature Precipitation Wind Pressure Humidity
    00:00 +6°C° 0.2 mm 2 mps 755 mmHg 93%
    01:00 +6°C° 0.1 mm 2 mps 755 mmHg 94%
    02:00 +6°C° 0.1 mm 2 mps 755 mmHg 94%
    03:00 +5°C° 0.1 mm 2 mps 755 mmHg 95%
    04:00 +5°C° 0 mm 2 mps 754 mmHg 95%
    05:00 +5°C° 0 mm 2 mps 754 mmHg 95%
    06:00 +5°C° 0 mm 2 mps 754 mmHg 95%
    07:00 +6°C° 0 mm 2 mps 754 mmHg 94%
    08:00 +6°C° 0 mm 2 mps 755 mmHg 93%
    09:00 +6°C° 0 mm 2 mps 755 mmHg 92%
    10:00 +7°C° 0.1 mm 2 mps 754 mmHg 91%
    11:00 +7°C° 0.1 mm 2 mps 754 mmHg 89%
    12:00 +7°C° 0.1 mm 2 mps 754 mmHg 88%
    13:00 +7°C° 0.3 mm 2 mps 754 mmHg 89%
    14:00 +7°C° 0.3 mm 3 mps 754 mmHg 90%
    15:00 +7°C° 0.3 mm 3 mps 753 mmHg 91%
    16:00 +7°C° 0.4 mm 3 mps 753 mmHg 91%
    17:00 +5°C° 0.4 mm 4 mps 753 mmHg 91%
    18:00 +5°C° 0.4 mm 4 mps 753 mmHg 92%
    19:00 +5°C° 0.1 mm 4 mps 753 mmHg 91%
    20:00 +5°C° 0.1 mm 4 mps 752 mmHg 89%
    21:00 +5°C° 0.1 mm 5 mps 752 mmHg 88%
    22:00 +5°C° 0.1 mm 5 mps 752 mmHg 88%
    23:00 +5°C° 0.1 mm 5 mps 752 mmHg 88%

    26 November, Monday

    Time Temperature Precipitation Wind Pressure Humidity
    00:00 +5°C° 0.1 mm 5 mps 752 mmHg 89%
    01:00 +5°C° 0.4 mm 5 mps 752 mmHg 88%
    02:00 +4°C° 0.4 mm 6 mps 751 mmHg 88%
    03:00 +4°C° 0.4 mm 6 mps 751 mmHg 88%
    04:00 +4°C° 0.5 mm 6 mps 751 mmHg 87%
    05:00 +3°C° 0.5 mm 6 mps 751 mmHg 86%
    06:00 +3°C° 0.5 mm 7 mps 751 mmHg 85%
    07:00 +3°C° 0.2 mm 7 mps 751 mmHg 84%
    08:00 +3°C° 0.2 mm 7 mps 751 mmHg 83%
    09:00 +3°C° 0.2 mm 7 mps 751 mmHg 81%
    10:00 +4°C° 0 mm 6 mps 751 mmHg 79%
    11:00 +4°C° 0 mm 6 mps 751 mmHg 77%
    12:00 +5°C° 0 mm 6 mps 751 mmHg 75%
    13:00 +4°C° 0 mm 6 mps 752 mmHg 75%
    14:00 +4°C° 0 mm 6 mps 752 mmHg 76%
    15:00 +4°C° 0 mm 6 mps 752 mmHg 76%
    16:00 +3°C° 0 mm 6 mps 753 mmHg 77%
    17:00 +3°C° 0 mm 6 mps 753 mmHg 78%
    18:00 +2°C° 0 mm 6 mps 753 mmHg 79%
    19:00 +1°C° 0 mm 6 mps 754 mmHg 80%
    20:00 +1°C° 0 mm 6 mps 754 mmHg 80%
    21:00 +1°C° 0 mm 6 mps 755 mmHg 81%
    22:00 0°C° 0 mm 5 mps 755 mmHg 81%
    23:00 0°C° 0 mm 5 mps 756 mmHg 81%

    27 November, Tuesday

    Time Temperature Precipitation Wind Pressure Humidity
    00:00 -1°C° 0 mm 5 mps 756 mmHg 80%
    01:00 -1°C° 0 mm 5 mps 756 mmHg 79%
    02:00 -1°C° 0 mm 5 mps 757 mmHg 78%
    03:00 -2°C° 0 mm 5 mps 757 mmHg 76%
    04:00 -2°C° 0 mm 5 mps 758 mmHg 75%
    05:00 -2°C° 0 mm 5 mps 758 mmHg 73%
    06:00 -2°C° 0 mm 5 mps 759 mmHg 71%
    07:00 -2°C° 0 mm 5 mps 759 mmHg 68%
    08:00 -1°C° 0 mm 5 mps 760 mmHg 65%
    09:00 -1°C° 0 mm 5 mps 761 mmHg 61%
    10:00 0°C° 0 mm 5 mps 761 mmHg 59%
    11:00 +1°C° 0 mm 5 mps 761 mmHg 56%
    12:00 +2°C° 0 mm 5 mps 762 mmHg 53%
    13:00 +1°C° 0 mm 5 mps 762 mmHg 53%
    14:00 +1°C° 0 mm 4 mps 763 mmHg 53%
    15:00 +1°C° 0 mm 4 mps 763 mmHg 53%
    16:00 0°C° 0 mm 4 mps 763 mmHg 55%
    17:00 0°C° 0 mm 4 mps 764 mmHg 58%
    18:00 -1°C° 0 mm 4 mps 764 mmHg 60%
    19:00 -1°C° 0 mm 4 mps 765 mmHg 63%
    20:00 -1°C° 0 mm 4 mps 765 mmHg 66%
    21:00 -2°C° 0 mm 4 mps 766 mmHg 69%
    22:00 -2°C° 0 mm 4 mps 766 mmHg 71%
    23:00 -2°C° 0 mm 4 mps 766 mmHg 73%
    Show more